IRIDIUM 179

Last updated on Sun Jun 21 2026 00:03:14 GMT+0000 (Coordinated Universal Time)

1 56730U 23068W 26171.34838329 .00000700 00000+0 88708-4 0 9998 2 56730 86.6772 33.0280 0002470 88.2467 271.9038 14.80235509166834
UTC large
Height (km)
Speed (km/s)
/
Latitude / Longitude
Inclination (degrees)
Orbital Period (minutes)
Azimuth
Elevation
Range (km)
Doppler Factor

Next 0 passes for location: London (51.5072 / 0.1276)

No passes found over London.
IRIDIUM 179